Regional Weather Roundup
Issued by NWS

Home | Current Version | Previous Version | Text Only | Print | Product List | Glossary Off
Versions: 1 2 3 4 5 6 7 8 9 10 11 12 13 14 15 16 17 18 19 20 21 22 23 24 25 26 27 28 29 30 31 32 33 34 35 36 37 38 39 40 41 42 43 44 45 46 47 48 49 50

772
ASUS44 KLIX 021305
RWRLA
LOUISIANA WEATHER ROUNDUP
NATIONAL WEATHER SERVICE NEW ORLEANS LA
700 AM CST MON MAR 02 2015

NOTE: "FAIR" INDICATES FEW OR NO CLOUDS BELOW 12,000 FEET WITH NO
      SIGNIFICANT WEATHER AND/OR OBSTRUCTIONS TO VISIBILITY.
      SKY/WX - SKY CONDITION AND SIGNIFICANT WEATHER.
      TMP - AIR TEMPERATURE.    DP   - DEWPOINT TEMPERATURE.
      RH  - RELATIVE HUMIDITY.  PRES - PRESSURE.
      HX  - HEAT INDEX.         WCI  - WIND CHILL INDEX.

*  THESE STATIONS ARE NOT NWS OR FAA STATIONS AND ARE NOT UNDER
   NWS QUALITY CONTROL.

LAZ040-048-061>063-065-066-069-021400-
SOUTHEAST LOUISIANA

CITY           SKY/WX    TMP DP  RH WIND       PRES   REMARKS
N.O. AUDUBON   NOT AVBL
N.O. INTL ARPT CLOUDY    61  59  93 SE6       30.26R FOG
N.O. LAKEFRONT CLOUDY    61  58  90 SE7       30.27R FOG
SLIDELL        CLOUDY    62  61  96 CALM      30.26R
BATON ROUGE    CLOUDY    60  59  96 E3        30.25R
BOOTHVILLE     FOG       66  66 100 SE8       30.27S VSB 1/4
BELLE CHASSE   CLOUDY    63  60  90 VRB6      30.26R FOG
BOGALUSA*        N/A     62  59  90 CALM      30.28S
GALLIANO*      CLOUDY    53  53  99 CALM      30.26S FOG
NEW ROADS*     LGT RAIN  61  60  97 CALM      30.26R
GONZALES*      CLOUDY    60  60 100 CALM      30.25R FOG
HAMMOND*       CLOUDY    61  57  88 SE3       30.28R
HOUMA*         FOG       61  61 100 E9        30.25R VSB 1/2
PORT FOURCHON* FOG       63  61  94 NE7       30.28S VSB 0

$$

LAZ041-044-053-054-021400-
SOUTHWEST LOUISIANA

CITY           SKY/WX    TMP DP  RH WIND       PRES   REMARKS
LAKE CHARLES   FOG       63  62  97 NE8       30.22S VSB 1
LAFAYETTE      FOG       62  62 100 CALM      30.23S VSB 1/4
PATTERSON      CLOUDY    61  59  94 E5        30.26R VSB 3/4
SALT POINT       N/A     62  62 100 E3        30.23R
NEW IBERIA     FOG       63  62  97 SE3       30.24R VSB 1/4
CHENAULT AIRPK NOT AVBL

$$

LAZ027-028-021400-
CENTRAL LOUISIANA

CITY           SKY/WX    TMP DP  RH WIND       PRES   REMARKS
FORT POLK      CLOUDY    47  47  99 N7        30.26R FOG
ALEXANDRIA INT LGT RAIN  46  46 100 N5        30.28R FOG
ALEXANDRIA     LGT RAIN  47  46  97 NE5       30.29R

$$

LAZ001-002-021400-
NORTHWEST LOUISIANA

CITY           SKY/WX    TMP DP  RH WIND       PRES   REMARKS
SHREVEPORT     DRIZZLE   42  42 100 NE8       30.33R FOG
BARKSDALE AFB  NOT AVBL
DTN SHREVEPORT CLOUDY    41  39  93 NE9       30.35R FOG

$$

LAZ014-016-021400-
NORTHEAST LOUISIANA

CITY           SKY/WX    TMP DP  RH WIND       PRES   REMARKS
MONROE         CLOUDY    42  41  96 NE15G23   30.36R FOG
TALLULAH       CLOUDY    43  42  97 N9        30.34R FOG

$$




USA.gov is the U.S. government's official web portal to all federal, state and local government web resources and services.